Regional Weather Roundup
Issued by NWS

Home | Current Version | Previous Version | Graphics & Text | Print | Product List | Glossary On
Versions: 1 2 3 4 5 6 7 8 9 10 11 12 13 14 15 16 17 18 19 20 21 22 23 24 25 26 27 28 29 30 31 32 33 34 35 36 37 38 39 40 41 42 43 44 45 46 47 48 49 50
000
ASUS45 KBOI 230810
RWRID
WEATHER ROUNDUP FOR IDAHO
NATIONAL WEATHER SERVICE BOISE ID
200 AM MDT WED JUL 23 2014

NOTE: "FAIR" INDICATES FEW OR NO CLOUDS BELOW 12000 FEET
WITH NO SIGNIFICANT WEATHER AND/OR OBSTRUCTIONS TO VISIBILITY

IDZ012-014-230900-
SOUTHWEST IDAHO


CITY           SKY/WX    TMP DP  RH WIND       PRES   REMARKS
BOISE          MOCLDY    74  51  44 NW13      30.09R
CALDWELL       MOCLDY    66  52  59 W12G23    30.08R THUNDER
MOUNTAIN HOME  PTCLDY    74  51  44 N14       30.00R
$$

IDZ016-017-230900-
SOUTHCENTRAL IDAHO


CITY           SKY/WX    TMP DP  RH WIND       PRES   REMARKS
BURLEY         CLEAR     61  48  62 CALM      30.04R
JEROME         CLEAR     67  50  54 S8        30.03S
TWIN FALLS     CLEAR     71  46  40 S17       30.05R
$$

IDZ019>023-230900-
SOUTHEAST IDAHO


CITY           SKY/WX    TMP DP  RH WIND       PRES   REMARKS
IDAHO FALLS    PTCLDY    57  49  74 NW3       30.10F
POCATELLO      CLEAR     62  42  47 N6        30.07F
REXBURG        PTCLDY    58  52  80 NE8       30.13F
$$

IDZ006-010-011-018-031-032-230900-
CENTRAL IDAHO MOUNTAINS


CITY           SKY/WX    TMP DP  RH WIND       PRES   REMARKS
MCCALL         CLOUDY    65  44  46 NW8G18    30.21S
HAILEY         CLEAR     64  43  45 NW6       30.16R
STANLEY          N/A     52  49  89 SW7       30.29R
SALMON         CLOUDY    63  48  59 CALM      30.06S
CHALLIS        CLOUDY    71  39  31 W14       30.18R
$$

IDZ002-004-006-007-026-230900-
NORTHERN IDAHO


CITY           SKY/WX    TMP DP  RH WIND       PRES   REMARKS
LEWISTON       LGT RAIN  66  62  87 E9        30.11F
LOWELL           N/A     72  57  59 S3        30.13R
COEUR D`ALENE  CLOUDY    64  57  77 W7        30.13S
MULLAN PASS    CLOUDY    53  46  77 NW8       30.31R
$$


USA.gov is the U.S. government's official web portal to all federal, state and local government web resources and services.